| time (UTC) | temp C | wind direction | speed KPH | gust KPH | rain 1hr cm | rain 24hr cm | rain mn cm | humidity % | barometer mb |
| 20260507080108 | 22 | 45 | 1.6 | 6.4 | 0.00 | 0.00 | 0.00 | 43 | 1019.8 |
| 20260507075108 | 23 | 90 | 1.6 | 4.8 | 0.00 | 0.00 | 0.00 | 42 | 1019.8 |
| 20260507074108 | 22 | 67 | 1.6 | 6.4 | 0.00 | 0.00 | 0.00 | 45 | 1019.7 |
| 20260507073108 | 22 | 90 | 3.2 | 8.0 | 0.00 | 0.00 | 0.00 | 45 | 1019.8 |
| 20260507072111 | 22 | 90 | 1.6 | 1.6 | 0.00 | 0.00 | 0.00 | 46 | 1019.8 |
| 20260507071108 | 22 | 135 | 1.6 | 1.6 | 0.00 | 0.00 | 0.00 | 48 | 1019.7 |
| 20260507070108 | 22 | 315 | 1.6 | 1.6 | 0.00 | 0.00 | 0.00 | 46 | 1019.6 |
| 20260507065108 | 22 | 90 | 0.0 | 0.0 | 0.00 | 0.00 | 0.00 | 48 | 1019.7 |
| 20260507064108 | 22 | 90 | 0.0 | 1.6 | 0.00 | 0.00 | 0.00 | 46 | 1019.6 |
| 20260507063111 | 22 | 135 | 0.0 | 1.6 | 0.00 | 0.00 | 0.00 | 46 | 1019.7 |
| 20260507062113 | 23 | 90 | 1.6 | 1.6 | 0.00 | 0.00 | 0.00 | 43 | 1019.6 |
| 20260507061108 | 23 | 90 | 0.0 | 0.0 | 0.00 | 0.00 | 0.00 | 40 | 1019.5 |
| 20260507060109 | 23 | 90 | 1.6 | 1.6 | 0.00 | 0.00 | 0.00 | 42 | 1019.5 |
| 20260507055108 | 23 | 45 | 0.0 | 0.0 | 0.00 | 0.00 | 0.00 | 43 | 1019.5 |
| 20260507054109 | 22 | 225 | 0.0 | 0.0 | 0.00 | 0.00 | 0.00 | 43 | 1019.4 |
| 20260507053109 | 22 | 315 | 0.0 | 0.0 | 0.00 | 0.00 | 0.00 | 44 | 1019.4 |
| 20260507052110 | 22 | 0 | 0.0 | 1.6 | 0.00 | 0.00 | 0.00 | 45 | 1019.4 |
| 20260507051108 | 22 | 0 | 0.0 | 0.0 | 0.00 | 0.00 | 0.00 | 49 | 1019.4 |
| 20260507050108 | 21 | 0 | 0.0 | 0.0 | 0.00 | 0.00 | 0.00 | 50 | 1019.4 |
| 20260507045111 | 21 | 225 | 1.6 | 1.6 | 0.00 | 0.00 | 0.00 | 52 | 1019.4 |
| 20260507044108 | 21 | 270 | 0.0 | 0.0 | 0.00 | 0.00 | 0.00 | 54 | 1019.3 |
| 20260507043109 | 20 | 315 | 0.0 | 0.0 | 0.00 | 0.00 | 0.00 | 55 | 1019.2 |
| 20260507042108 | 20 | 0 | 0.0 | 0.0 | 0.00 | 0.00 | 0.00 | 55 | 1019.2 |
| 20260507041108 | 19 | 292 | 0.0 | 0.0 | 0.00 | 0.00 | 0.00 | 56 | 1019.1 |
| 20260507040108 | 18 | 270 | 0.0 | 0.0 | 0.00 | 0.00 | 0.00 | 59 | 1019.1 |
| 20260507035108 | 17 | 315 | 0.0 | 0.0 | 0.00 | 0.00 | 0.00 | 63 | 1019.0 |
| 20260507034108 | 16 | 315 | 0.0 | 0.0 | 0.00 | 0.00 | 0.00 | 65 | 1019.0 |
| 20260507033108 | 15 | 315 | 0.0 | 0.0 | 0.00 | 0.00 | 0.00 | 67 | 1018.9 |
| 20260507032108 | 14 | 315 | 0.0 | 0.0 | 0.00 | 0.00 | 0.00 | 72 | 1018.9 |
| 20260507031108 | 14 | 315 | 0.0 | 0.0 | 0.00 | 0.00 | 0.00 | 73 | 1018.9 |
| 20260507030108 | 14 | 270 | 0.0 | 0.0 | 0.00 | 0.00 | 0.00 | 74 | 1018.9 |
| 20260507025108 | 13 | 315 | 0.0 | 0.0 | 0.00 | 0.00 | 0.00 | 74 | 1018.8 |
| 20260507024108 | 13 | 0 | 0.0 | 0.0 | 0.00 | 0.00 | 0.00 | 74 | 1018.6 |
| 20260507023108 | 13 | 0 | 0.0 | 0.0 | 0.00 | 0.00 | 0.00 | 74 | 1018.5 |
| 20260507022108 | 14 | 0 | 0.0 | 0.0 | 0.00 | 0.00 | 0.00 | 73 | 1018.5 |
| 20260507021108 | 14 | 315 | 0.0 | 0.0 | 0.00 | 0.00 | 0.00 | 73 | 1018.4 |
| 20260507020108 | 14 | 0 | 0.0 | 0.0 | 0.00 | 0.00 | 0.00 | 73 | 1018.4 |
| 20260507015108 | 14 | 0 | 0.0 | 0.0 | 0.00 | 0.00 | 0.00 | 73 | 1018.2 |
| 20260507014108 | 14 | 315 | 0.0 | 0.0 | 0.00 | 0.00 | 0.00 | 73 | 1018.2 |
| 20260507013108 | 14 | 292 | 0.0 | 0.0 | 0.00 | 0.00 | 0.00 | 72 | 1018.2 |
| 20260507012107 | 14 | 315 | 0.0 | 0.0 | 0.00 | 0.00 | 0.00 | 72 | 1018.1 |
| 20260507011108 | 14 | 315 | 0.0 | 0.0 | 0.00 | 0.00 | 0.00 | 72 | 1018.2 |
| 20260507010108 | 14 | 270 | 0.0 | 0.0 | 0.00 | 0.00 | 0.00 | 72 | 1018.2 |
| 20260507005108 | 14 | 315 | 0.0 | 0.0 | 0.00 | 0.00 | 0.00 | 72 | 1018.2 |
| 20260507004108 | 15 | 270 | 0.0 | 0.0 | 0.00 | 0.00 | 0.00 | 72 | 1018.2 |
| 20260507003108 | 15 | 0 | 0.0 | 0.0 | 0.00 | 0.00 | 0.00 | 72 | 1018.3 |
| 20260507002107 | 15 | 90 | 0.0 | 0.0 | 0.00 | 0.00 | 0.00 | 72 | 1018.3 |
| 20260507001108 | 15 | 45 | 0.0 | 0.0 | 0.00 | 0.00 | 0.00 | 71 | 1018.3 |
| 20260507000107 | 15 | 225 | 0.0 | 0.0 | 0.00 | 0.00 | 0.00 | 71 | 1018.3 |
| 20260506235108 | 15 | 0 | 0.0 | 0.0 | 0.00 | 0.00 | 0.00 | 71 | 1018.3 |
| 20260506234107 | 15 | 45 | 0.0 | 0.0 | 0.00 | 0.00 | 0.00 | 71 | 1018.3 |
| 20260506233108 | 15 | 315 | 0.0 | 0.0 | 0.00 | 0.00 | 0.00 | 70 | 1018.3 |
| 20260506232107 | 15 | 45 | 0.0 | 0.0 | 0.00 | 0.00 | 0.00 | 70 | 1018.3 |
| 20260506231107 | 15 | 337 | 0.0 | 0.0 | 0.00 | 0.00 | 0.00 | 70 | 1018.3 |
| 20260506230107 | 15 | 337 | 0.0 | 0.0 | 0.00 | 0.00 | 0.00 | 70 | 1018.4 |
| 20260506225107 | 15 | 315 | 1.6 | 3.2 | 0.00 | 0.00 | 0.00 | 69 | 1018.5 |
| 20260506224107 | 15 | 315 | 0.0 | 0.0 | 0.00 | 0.00 | 0.00 | 69 | 1018.5 |
| 20260506223107 | 15 | 0 | 0.0 | 0.0 | 0.00 | 0.00 | 0.00 | 69 | 1018.4 |
| 20260506222107 | 15 | 315 | 0.0 | 0.0 | 0.00 | 0.00 | 0.00 | 68 | 1018.5 |
| 20260506221107 | 16 | 0 | 0.0 | 0.0 | 0.00 | 0.00 | 0.00 | 68 | 1018.5 |
| 20260506220107 | 16 | 0 | 1.6 | 3.2 | 0.00 | 0.00 | 0.00 | 68 | 1018.5 |
| 20260506215107 | 16 | 0 | 0.0 | 0.0 | 0.00 | 0.00 | 0.00 | 68 | 1018.5 |
| 20260506214107 | 16 | 315 | 0.0 | 3.2 | 0.00 | 0.00 | 0.00 | 68 | 1018.6 |
| 20260506213108 | 16 | 225 | 0.0 | 0.0 | 0.00 | 0.00 | 0.00 | 67 | 1018.4 |
| 20260506212107 | 16 | 315 | 0.0 | 0.0 | 0.00 | 0.00 | 0.00 | 67 | 1018.5 |
| 20260506211107 | 16 | 315 | 0.0 | 1.6 | 0.00 | 0.00 | 0.00 | 67 | 1018.4 |
| 20260506210108 | 16 | 0 | 0.0 | 1.6 | 0.00 | 0.00 | 0.00 | 67 | 1018.4 |
| 20260506205107 | 16 | 270 | 1.6 | 1.6 | 0.00 | 0.00 | 0.00 | 66 | 1018.4 |
| 20260506204107 | 16 | 315 | 0.0 | 1.6 | 0.00 | 0.00 | 0.00 | 66 | 1018.4 |
| 20260506203108 | 16 | 0 | 0.0 | 0.0 | 0.00 | 0.00 | 0.00 | 66 | 1018.4 |
| 20260506202107 | 16 | 315 | 0.0 | 0.0 | 0.00 | 0.00 | 0.00 | 65 | 1018.4 |
| 20260506201107 | 17 | 270 | 0.0 | 1.6 | 0.00 | 0.00 | 0.00 | 65 | 1018.5 |
| 20260506200107 | 17 | 315 | 1.6 | 1.6 | 0.00 | 0.00 | 0.00 | 65 | 1018.5 |
| 20260506195107 | 17 | 0 | 0.0 | 0.0 | 0.00 | 0.00 | 0.00 | 64 | 1018.5 |
| 20260506194107 | 17 | 315 | 0.0 | 0.0 | 0.00 | 0.00 | 0.00 | 64 | 1018.5 |
| 20260506193107 | 17 | 292 | 0.0 | 1.6 | 0.00 | 0.00 | 0.00 | 63 | 1018.5 |
| 20260506192107 | 17 | 315 | 0.0 | 0.0 | 0.00 | 0.00 | 0.00 | 62 | 1018.4 |
| 20260506191107 | 17 | 270 | 0.0 | 0.0 | 0.00 | 0.00 | 0.00 | 61 | 1018.4 |
| 20260506190107 | 17 | 225 | 0.0 | 0.0 | 0.00 | 0.00 | 0.00 | 60 | 1018.3 |
| 20260506185107 | 17 | 315 | 0.0 | 0.0 | 0.00 | 0.00 | 0.00 | 59 | 1018.2 |
| 20260506184107 | 17 | 315 | 0.0 | 1.6 | 0.00 | 0.00 | 0.00 | 58 | 1018.2 |
| 20260506183107 | 18 | 270 | 0.0 | 0.0 | 0.00 | 0.00 | 0.00 | 58 | 1018.1 |
| 20260506182107 | 18 | 225 | 0.0 | 0.0 | 0.00 | 0.00 | 0.00 | 57 | 1018.0 |
| 20260506181107 | 18 | 180 | 0.0 | 0.0 | 0.00 | 0.00 | 0.00 | 57 | 1017.9 |
| 20260506180107 | 18 | 225 | 0.0 | 0.0 | 0.00 | 0.00 | 0.00 | 57 | 1017.9 |
| 20260506175107 | 18 | 180 | 0.0 | 0.0 | 0.00 | 0.00 | 0.00 | 57 | 1017.7 |
| 20260506174107 | 18 | 180 | 0.0 | 0.0 | 0.00 | 0.00 | 0.00 | 57 | 1017.6 |
| 20260506173107 | 18 | 247 | 0.0 | 0.0 | 0.00 | 0.00 | 0.00 | 57 | 1017.5 |
| 20260506172107 | 18 | 225 | 0.0 | 0.0 | 0.00 | 0.00 | 0.00 | 57 | 1017.5 |
| 20260506171107 | 18 | 225 | 1.6 | 3.2 | 0.00 | 0.00 | 0.00 | 57 | 1017.4 |
| 20260506170107 | 19 | 247 | 1.6 | 4.8 | 0.00 | 0.00 | 0.00 | 56 | 1017.4 |
| 20260506165107 | 19 | 225 | 0.0 | 0.0 | 0.00 | 0.00 | 0.00 | 55 | 1017.3 |
| 20260506164107 | 19 | 180 | 1.6 | 6.4 | 0.00 | 0.00 | 0.00 | 54 | 1017.2 |
| 20260506163107 | 19 | 225 | 1.6 | 3.2 | 0.00 | 0.00 | 0.00 | 54 | 1017.2 |
| 20260506162107 | 19 | 270 | 1.6 | 1.6 | 0.00 | 0.00 | 0.00 | 54 | 1017.1 |
| 20260506161107 | 20 | 180 | 3.2 | 6.4 | 0.00 | 0.00 | 0.00 | 53 | 1017.0 |
| 20260506160107 | 20 | 225 | 0.0 | 0.0 | 0.00 | 0.00 | 0.00 | 54 | 1016.9 |
| 20260506155107 | 19 | 180 | 3.2 | 4.8 | 0.00 | 0.00 | 0.00 | 56 | 1016.9 |
| 20260506154107 | 20 | 225 | 6.4 | 11.3 | 0.00 | 0.00 | 0.00 | 55 | 1017.0 |
| 20260506153107 | 20 | 180 | 1.6 | 6.4 | 0.00 | 0.00 | 0.00 | 54 | 1017.0 |
| 20260506152107 | 20 | 180 | 1.6 | 8.0 | 0.00 | 0.00 | 0.00 | 51 | 1017.0 |
| 20260506151107 | 20 | 202 | 1.6 | 4.8 | 0.00 | 0.00 | 0.00 | 53 | 1017.0 |
| 20260506150107 | 20 | 225 | 3.2 | 9.7 | 0.00 | 0.00 | 0.00 | 52 | 1016.9 |
| 20260506145107 | 20 | 180 | 1.6 | 6.4 | 0.00 | 0.00 | 0.00 | 51 | 1016.7 |
| 20260506144107 | 20 | 180 | 0.0 | 0.0 | 0.00 | 0.00 | 0.00 | 49 | 1016.7 |
| 20260506143107 | 21 | 225 | 1.6 | 4.8 | 0.00 | 0.00 | 0.00 | 49 | 1016.8 |
| 20260506142107 | 21 | 180 | 1.6 | 8.0 | 0.00 | 0.00 | 0.00 | 48 | 1016.7 |
| 20260506141107 | 21 | 180 | 0.0 | 0.0 | 0.00 | 0.00 | 0.00 | 46 | 1016.6 |
| 20260506140107 | 21 | 180 | 1.6 | 4.8 | 0.00 | 0.00 | 0.00 | 46 | 1016.6 |
| 20260506135107 | 21 | 270 | 0.0 | 0.0 | 0.00 | 0.00 | 0.00 | 47 | 1016.6 |
| 20260506134107 | 21 | 180 | 3.2 | 3.2 | 0.00 | 0.00 | 0.00 | 49 | 1016.7 |
| 20260506133107 | 21 | 112 | 1.6 | 3.2 | 0.00 | 0.00 | 0.00 | 49 | 1016.6 |
| 20260506132107 | 21 | 157 | 1.6 | 1.6 | 0.00 | 0.00 | 0.00 | 49 | 1016.6 |
| 20260506131107 | 21 | 135 | 3.2 | 9.7 | 0.00 | 0.00 | 0.00 | 48 | 1016.5 |
| 20260506130108 | 21 | 180 | 1.6 | 1.6 | 0.00 | 0.00 | 0.00 | 48 | 1016.6 |
| 20260506125107 | 21 | 180 | 1.6 | 3.2 | 0.00 | 0.00 | 0.00 | 43 | 1016.7 |
| 20260506124108 | 22 | 225 | 3.2 | 12.9 | 0.00 | 0.00 | 0.00 | 44 | 1016.6 |
| 20260506123107 | 22 | 0 | 1.6 | 3.2 | 0.00 | 0.00 | 0.00 | 43 | 1016.6 |
| 20260506122107 | 22 | 247 | 1.6 | 4.8 | 0.00 | 0.00 | 0.00 | 42 | 1016.6 |
| 20260506121107 | 22 | 135 | 1.6 | 3.2 | 0.00 | 0.00 | 0.00 | 43 | 1016.7 |
| 20260506120107 | 22 | 180 | 3.2 | 8.0 | 0.00 | 0.00 | 0.00 | 42 | 1016.8 |
| 20260506115107 | 21 | 315 | 0.0 | 0.0 | 0.00 | 0.00 | 0.00 | 47 | 1016.8 |
| 20260506114107 | 22 | 135 | 1.6 | 1.6 | 0.00 | 0.00 | 0.00 | 45 | 1016.9 |
| 20260506113107 | 22 | 180 | 0.0 | 0.0 | 0.00 | 0.00 | 0.00 | 47 | 1017.0 |
| 20260506112107 | 22 | 202 | 3.2 | 3.2 | 0.00 | 0.00 | 0.00 | 47 | 1017.1 |
| 20260506111107 | 22 | 180 | 1.6 | 1.6 | 0.00 | 0.00 | 0.00 | 48 | 1017.0 |
| 20260506110107 | 22 | 180 | 3.2 | 3.2 | 0.00 | 0.00 | 0.00 | 47 | 1017.1 |
| 20260506105107 | 22 | 225 | 0.0 | 1.6 | 0.00 | 0.00 | 0.00 | 50 | 1017.2 |
| 20260506104108 | 22 | 135 | 0.0 | 0.0 | 0.00 | 0.00 | 0.00 | 51 | 1017.2 |
| 20260506103107 | 22 | 90 | 3.2 | 3.2 | 0.00 | 0.00 | 0.00 | 51 | 1017.2 |
| 20260506102107 | 22 | 135 | 0.0 | 0.0 | 0.00 | 0.00 | 0.00 | 50 | 1017.2 |
| 20260506101107 | 21 | 247 | 1.6 | 1.6 | 0.00 | 0.00 | 0.00 | 50 | 1017.3 |
| 20260506100107 | 22 | 90 | 1.6 | 3.2 | 0.00 | 0.00 | 0.00 | 49 | 1017.3 |
| 20260506095107 | 21 | 90 | 4.8 | 4.8 | 0.00 | 0.00 | 0.00 | 51 | 1017.3 |
| 20260506094107 | 22 | 90 | 1.6 | 3.2 | 0.00 | 0.00 | 0.00 | 48 | 1017.3 |
| 20260506093107 | 22 | 180 | 1.6 | 1.6 | 0.00 | 0.00 | 0.00 | 49 | 1017.4 |
| 20260506092107 | 21 | 270 | 1.6 | 1.6 | 0.00 | 0.00 | 0.00 | 50 | 1017.5 |
| 20260506091109 | 21 | 45 | 3.2 | 9.7 | 0.00 | 0.00 | 0.00 | 49 | 1017.4 |
| 20260506090107 | 21 | 90 | 4.8 | 4.8 | 0.00 | 0.00 | 0.00 | 47 | 1017.5 |
| 20260506085107 | 21 | 90 | 3.2 | 3.2 | 0.00 | 0.00 | 0.00 | 46 | 1017.5 |
| 20260506084107 | 21 | 90 | 3.2 | 8.0 | 0.00 | 0.00 | 0.00 | 45 | 1017.6 |
| 20260506083107 | 21 | 45 | 0.0 | 1.6 | 0.00 | 0.00 | 0.00 | 45 | 1017.6 |
| 20260506082107 | 21 | 90 | 1.6 | 1.6 | 0.00 | 0.00 | 0.00 | 45 | 1017.5 |
| 20260506081107 | 20 | 90 | 3.2 | 6.4 | 0.00 | 0.00 | 0.00 | 44 | 1017.5 |